Time,TemperatureF,DewpointF,PressureIn,WindDirection,WindDirectionDegrees,WindSpeedMPH,WindSpeedGustMPH,Humidity,HourlyPrecipIn,Conditions,Clouds,dailyrainin,SolarRadiationWatts/m^2,SoftwareType,DateUTC
2013-08-01 00:04:00,56.9,53.0,30.03,West,266,3.0,13.0,85,0.00,,,0.00,0,weatherlink.com 1.10,2013-08-01 07:04:00,
2013-08-01 00:19:00,57.0,53.0,30.03,WSW,246,10.0,18.0,85,0.00,,,0.00,0,weatherlink.com 1.10,2013-08-01 07:19:00,
2013-08-01 00:34:00,57.0,53.0,30.03,WSW,245,3.0,14.0,86,0.00,,,0.00,0,weatherlink.com 1.10,2013-08-01 07:34:00,
2013-08-01 00:49:00,56.9,53.0,30.03,South,188,3.0,10.0,86,0.00,,,0.00,0,weatherlink.com 1.10,2013-08-01 07:49:00,
2013-08-01 01:19:00,56.7,53.0,30.02,West,273,9.0,14.0,86,0.00,,,0.00,0,weatherlink.com 1.10,2013-08-01 08:19:00,
2013-08-01 01:34:00,56.6,53.0,30.02,WSW,257,3.0,12.0,87,0.00,,,0.00,0,weatherlink.com 1.10,2013-08-01 08:34:00,
2013-08-01 02:19:00,56.3,53.0,30.02,WNW,286,5.0,8.0,87,0.00,,,0.00,0,weatherlink.com 1.10,2013-08-01 09:19:00,
2013-08-01 02:34:00,56.1,52.0,30.02,SSW,202,1.0,6.0,87,0.00,,,0.00,0,weatherlink.com 1.10,2013-08-01 09:34:00,
2013-08-01 02:49:00,56.1,52.0,30.02,West,265,4.0,11.0,87,0.00,,,0.00,0,weatherlink.com 1.10,2013-08-01 09:49:00,
2013-08-01 03:04:00,56.0,52.0,30.02,West,261,4.0,9.0,87,0.00,,,0.00,0,weatherlink.com 1.10,2013-08-01 10:04:00,
2013-08-01 03:49:00,55.9,52.0,30.01,WSW,250,4.0,8.0,87,0.00,,,0.00,0,weatherlink.com 1.10,2013-08-01 10:49:00,
2013-08-01 04:04:00,55.7,52.0,30.02,West,281,5.0,11.0,88,0.00,,,0.00,0,weatherlink.com 1.10,2013-08-01 11:04:00,
2013-08-01 04:19:00,55.8,52.0,30.02,WSW,252,6.0,12.0,88,0.00,,,0.00,0,weatherlink.com 1.10,2013-08-01 11:19:00,
2013-08-01 04:34:00,55.9,52.0,30.02,West,280,5.0,10.0,87,0.00,,,0.00,0,weatherlink.com 1.10,2013-08-01 11:34:00,
2013-08-01 04:49:00,55.9,52.0,30.02,West,264,4.0,14.0,87,0.00,,,0.00,0,weatherlink.com 1.10,2013-08-01 11:49:00,
2013-08-01 05:04:00,56.1,52.0,30.02,SW,223,3.0,11.0,87,0.00,,,0.00,0,weatherlink.com 1.10,2013-08-01 12:04:00,
2013-08-01 06:20:00,56.0,52.0,30.04,WSW,246,3.0,14.0,86,0.00,,,0.00,9,weatherlink.com 1.10,2013-08-01 13:20:00,
2013-08-01 06:35:00,56.2,52.0,30.05,WSW,258,6.0,9.0,87,0.00,,,0.00,25,weatherlink.com 1.10,2013-08-01 13:35:00,
2013-08-01 06:50:00,56.2,52.0,30.05,West,278,5.0,15.0,86,0.00,,,0.00,62,weatherlink.com 1.10,2013-08-01 13:50:00,
2013-08-01 07:35:00,56.7,52.0,30.05,WSW,242,10.0,15.0,85,0.00,,,0.00,107,weatherlink.com 1.10,2013-08-01 14:35:00,
2013-08-01 08:20:00,58.3,53.0,30.06,West,273,5.0,12.0,81,0.00,,,0.00,276,weatherlink.com 1.10,2013-08-01 15:20:00,
2013-08-01 08:35:00,59.0,53.0,30.06,WSW,254,10.0,15.0,80,0.00,,,0.00,510,weatherlink.com 1.10,2013-08-01 15:35:00,
2013-08-01 10:05:00,62.5,53.0,30.07,WNW,283,2.0,12.0,71,0.00,,,0.00,737,weatherlink.com 1.10,2013-08-01 17:05:00,
2013-08-01 10:20:00,63.2,53.0,30.07,WNW,292,6.0,14.0,70,0.00,,,0.00,766,weatherlink.com 1.10,2013-08-01 17:20:00,
2013-08-01 10:35:00,63.8,53.0,30.07,West,281,10.0,12.0,68,0.00,,,0.00,802,weatherlink.com 1.10,2013-08-01 17:35:00,
2013-08-01 11:36:00,65.8,53.0,30.07,WNW,292,6.0,13.0,63,0.00,,,0.00,900,weatherlink.com 1.10,2013-08-01 18:36:00,
2013-08-01 12:21:00,67.7,53.0,30.06,West,269,4.0,12.0,59,0.00,,,0.00,939,weatherlink.com 1.10,2013-08-01 19:21:00,
2013-08-01 13:06:00,69.5,52.0,30.05,WSW,243,5.0,13.0,55,0.00,,,0.00,944,weatherlink.com 1.10,2013-08-01 20:06:00,
2013-08-01 14:51:00,72.6,51.0,30.02,WSW,252,5.0,12.0,47,0.00,,,0.00,826,weatherlink.com 1.10,2013-08-01 21:51:00,
2013-08-01 15:36:00,73.9,51.0,30.01,NW,306,6.0,19.0,45,0.00,,,0.00,731,weatherlink.com 1.10,2013-08-01 22:36:00,
2013-08-01 15:51:00,74.2,51.0,30.00,WSW,240,13.0,15.0,45,0.00,,,0.00,693,weatherlink.com 1.10,2013-08-01 22:51:00,
2013-08-01 16:06:00,72.8,52.0,30.00,West,273,7.0,16.0,48,0.00,,,0.00,654,weatherlink.com 1.10,2013-08-01 23:06:00,
2013-08-01 16:21:00,72.8,52.0,29.99,NW,315,5.0,14.0,49,0.00,,,0.00,610,weatherlink.com 1.10,2013-08-01 23:21:00,
2013-08-01 16:36:00,72.3,53.0,29.98,WNW,288,10.0,14.0,51,0.00,,,0.00,564,weatherlink.com 1.10,2013-08-01 23:36:00,
2013-08-01 16:51:00,72.2,52.0,29.98,West,275,8.0,15.0,50,0.00,,,0.00,522,weatherlink.com 1.10,2013-08-01 23:51:00,
2013-08-01 17:06:00,71.3,53.0,29.98,West,281,9.0,14.0,52,0.00,,,0.00,476,weatherlink.com 1.10,2013-08-02 00:06:00,
2013-08-01 17:21:00,70.3,52.0,29.97,WNW,301,5.0,18.0,53,0.00,,,0.00,431,weatherlink.com 1.10,2013-08-02 00:21:00,
2013-08-01 17:36:00,70.2,52.0,29.97,WNW,294,9.0,15.0,52,0.00,,,0.00,380,weatherlink.com 1.10,2013-08-02 00:36:00,
2013-08-01 17:51:00,70.3,52.0,29.97,WNW,283,8.0,16.0,52,0.00,,,0.00,329,weatherlink.com 1.10,2013-08-02 00:51:00,
2013-08-01 18:36:00,68.2,52.0,29.95,West,259,7.0,18.0,57,0.00,,,0.00,158,weatherlink.com 1.10,2013-08-02 01:36:00,
2013-08-01 18:51:00,66.8,53.0,29.96,WSW,240,1.0,15.0,61,0.00,,,0.00,98,weatherlink.com 1.10,2013-08-02 01:51:00,
2013-08-01 19:06:00,65.7,53.0,29.96,WSW,256,2.0,18.0,63,0.00,,,0.00,51,weatherlink.com 1.10,2013-08-02 02:06:00,
2013-08-01 19:21:00,64.7,53.0,29.96,SSW,197,7.0,15.0,65,0.00,,,0.00,23,weatherlink.com 1.10,2013-08-02 02:21:00,
2013-08-01 19:51:00,61.8,52.0,29.97,SSE,159,4.0,7.0,71,0.00,,,0.00,14,weatherlink.com 1.10,2013-08-02 02:51:00,
2013-08-01 20:06:00,60.8,52.0,29.97,WSW,240,5.0,10.0,74,0.00,,,0.00,9,weatherlink.com 1.10,2013-08-02 03:06:00,
2013-08-01 20:22:00,60.0,52.0,29.97,WSW,257,0.0,10.0,76,0.00,,,0.00,0,weatherlink.com 1.10,2013-08-02 03:22:00,
2013-08-01 20:37:00,59.2,53.0,29.97,SSW,197,6.0,9.0,79,0.00,,,0.00,0,weatherlink.com 1.10,2013-08-02 03:37:00,
2013-08-01 20:52:00,58.5,52.0,29.97,SW,227,1.0,8.0,80,0.00,,,0.00,0,weatherlink.com 1.10,2013-08-02 03:52:00,
2013-08-01 21:07:00,57.8,52.0,29.96,West,272,11.0,14.0,82,0.00,,,0.00,0,weatherlink.com 1.10,2013-08-02 04:07:00,
2013-08-01 21:22:00,57.5,52.0,29.98,West,276,6.0,13.0,83,0.00,,,0.00,0,weatherlink.com 1.10,2013-08-02 04:22:00,
2013-08-01 21:37:00,57.3,53.0,29.98,WNW,292,2.0,10.0,84,0.00,,,0.00,0,weatherlink.com 1.10,2013-08-02 04:37:00,
2013-08-01 21:52:00,57.4,53.0,29.98,WSW,252,6.0,10.0,85,0.00,,,0.00,0,weatherlink.com 1.10,2013-08-02 04:52:00,
2013-08-01 22:07:00,57.1,53.0,29.98,West,263,1.0,10.0,85,0.00,,,0.00,0,weatherlink.com 1.10,2013-08-02 05:07:00,
2013-08-01 22:21:00,57.1,53.0,29.98,SW,229,6.0,11.0,86,0.00,,,0.00,0,weatherlink.com 1.10,2013-08-02 05:21:00,
2013-08-01 22:37:00,57.2,53.0,29.98,WNW,284,8.0,12.0,86,0.00,,,0.00,0,weatherlink.com 1.10,2013-08-02 05:37:00,
2013-08-01 22:52:00,57.1,53.0,29.97,West,269,4.0,13.0,87,0.00,,,0.00,0,weatherlink.com 1.10,2013-08-02 05:52:00,
2013-08-01 23:07:00,57.1,53.0,29.97,West,274,3.0,9.0,87,0.00,,,0.00,0,weatherlink.com 1.10,2013-08-02 06:07:00,
2013-08-01 23:22:00,56.8,53.0,29.97,NW,305,4.0,9.0,87,0.00,,,0.00,0,weatherlink.com 1.10,2013-08-02 06:22:00,
2013-08-01 23:37:00,56.7,53.0,29.97,West,270,5.0,12.0,88,0.00,,,0.00,0,weatherlink.com 1.10,2013-08-02 06:37:00,
2013-08-01 23:52:00,56.7,53.0,29.97,West,259,7.0,9.0,87,0.00,,,0.00,0,weatherlink.com 1.10,2013-08-02 06:52:00,